[[{"header":{"parameterUnit":"m.s-1","parameterCategory":1,"la1":30.2991,"la2":30.254,"lo1":-89.0895,"lo2":-89.0444,"dy":0.0017,"dx":0.0017,"nx":28,"ny":28,"refTime":"2024-03-22T09:00:00:Z","depth":0,"parameterNumber":2,"parameterNumberName":"U-component_of_WINDS"},"data":[0,0,0,0,0,0,0,0,0,0,0,0,0,0,0,0,0,0,0,0,0,0,0,0,0,0,0,0,0,0,0,0,0,0,0,0,0,0,0,0,0,0,0,0,0,0,0,0,0,0,0,0,0,0,0,0,0,0,4.9253,4.9254,0,4.9327,4.9328,4.9329,4.9254,4.9251,4.9248,4.9245,4.9321,4.9326,4.933,0,0,0,0,0,0,0,0,0,0,0,0,0,4.9047,4.9052,4.9253,4.9254,4.9255,4.9327,4.9328,4.9329,4.9254,4.9251,4.9247,4.9244,4.9319,4.9325,4.9331,0,0,0,0,0,0,0,0,0,0,0,0,0,4.9131,4.9053,4.9253,4.9226,4.9224,4.9327,4.9328,4.9329,4.9255,4.9251,4.9246,4.9242,4.9317,4.9324,4.9331,4.9464,0,0,4.9353,4.9356,0,0,0,0,0,0,0,0,4.9126,4.9138,4.9229,4.9228,4.9226,4.9277,4.9283,4.9374,4.9256,4.9243,4.9245,4.924,4.931,4.9317,4.9341,4.9467,4.9471,4.9354,4.9358,4.9361,4.9363,0,0,0,0,0,0,0,4.912,4.9135,4.9282,4.9231,4.9229,4.9211,4.9218,4.93,4.93,4.9244,4.9239,4.9249,4.9308,4.9334,4.9342,4.9472,4.9354,4.936,4.9364,4.9367,4.9713,4.9718,0,0,0,0,0,0,4.9117,4.913,4.928,4.9284,4.9164,4.9218,4.9226,4.9265,4.9299,4.93,4.9252,4.9245,4.9324,4.9334,4.9344,4.9503,4.9361,4.9368,4.9372,4.9708,4.9714,4.9719,0,0,0,0,0,0,4.9113,4.9132,4.9277,4.9206,4.9223,4.9226,4.9271,4.9269,4.9295,4.9306,4.9305,4.9279,4.9321,4.9334,4.9435,4.9505,4.9371,4.9378,4.9702,4.971,4.9717,4.9821,0,0,0,0,0,0,4.9108,4.913,4.918,4.9208,4.9227,4.9366,4.9275,4.9273,4.9307,4.9298,4.933,4.9331,4.9319,4.9425,4.9442,4.9512,4.9383,4.9696,4.9706,4.9714,4.9811,4.9831,4.9848,0,0,0,0,0,4.9101,4.9206,4.9183,4.9202,4.929,4.937,4.9382,4.9365,4.9313,4.9364,4.9371,4.933,4.9494,4.9436,4.9455,4.9528,4.9692,4.9703,4.9714,4.9803,4.9827,4.9848,0,0,0,0,0,0,4.9186,4.9209,4.9184,4.9301,4.9335,4.9358,4.9421,4.939,4.9439,4.9428,4.9405,4.9413,4.9521,4.9534,4.9469,4.9659,4.9585,4.96,4.9646,4.9669,4.9687,4.9682,4.9389,0,0,0,0,0,4.9219,4.9282,4.9299,4.9401,4.9419,4.9418,4.9452,4.9437,4.947,4.9483,4.9498,4.9532,4.9591,4.9631,4.9686,4.9813,4.982,4.9873,4.9891,4.9906,4.992,4.999,5.0014,4.9756,4.9755,4.9755,0,0,4.9287,4.9307,4.9349,4.9419,4.9443,4.951,4.943,4.9503,4.9553,4.9494,4.9591,4.9603,4.964,4.9755,4.9807,4.977,4.9993,4.992,4.9932,4.9937,5.0004,5.0028,5.005,4.9763,4.9762,4.976,0,0,4.9445,4.9466,4.9555,4.9581,4.9618,4.9617,4.9638,4.9666,4.9673,4.9769,4.9727,4.9786,4.9888,4.9917,4.9945,5.0117,5.0082,5.0135,5.023,5.0299,5.032,5.0338,5.04,5.0423,5.0148,5.0149,5.0149,0,4.9525,4.9624,4.9604,4.9682,4.9715,4.9665,4.9755,4.9781,4.9835,4.9859,4.9817,4.9946,4.9967,5.0089,5.0132,5.0155,5.018,5.0131,5.0318,5.0336,5.0353,5.0412,5.0436,5.0155,5.0154,5.0154,5.0153,0,4.9721,4.979,4.9857,4.9911,4.9952,5.0035,5.0029,5.0072,5.0054,5.0057,5.0157,5.0181,5.0241,5.0269,5.0251,5.039,5.0366,5.0322,5.0246,5.0384,5.044,5.0462,5.0164,5.0162,5.016,5.0158,0,0,4.9934,4.9978,5.0003,5.0028,5.0066,5.012,5.0202,5.0261,5.03,5.0339,5.0408,5.0496,5.0456,5.0488,5.0473,5.0534,5.0671,5.0482,5.0483,5.0518,5.0827,5.0861,5.0887,5.0648,5.0652,5.0655,5.0824,0,5.0095,5.0237,5.0223,5.0358,5.0423,5.0378,5.045,5.0482,5.0488,5.0544,5.055,5.0614,5.0556,5.0575,5.0633,5.0642,5.0733,5.0629,5.0713,5.0716,5.0706,5.0916,5.0952,5.111,5.0846,5.0849,5.0852,0,5.03,5.0348,5.0491,5.0522,5.0548,5.0613,5.0667,5.0721,5.0757,5.0757,5.0794,5.077,5.0853,5.0776,5.0892,5.0822,5.0855,5.0865,5.0871,5.0879,5.0793,5.0931,5.116,5.1184,5.0886,5.0883,5.0881,0,5.0444,5.0544,5.0642,5.0665,5.0703,5.075,5.0768,5.0799,5.0836,5.0884,5.0908,5.0965,5.0996,5.1041,5.1032,5.0977,5.1151,5.1073,5.1155,5.1155,5.1193,5.1191,5.1432,5.1214,5.1213,5.1213,5.1212,0,5.0625,5.0715,5.0707,5.0768,5.0868,5.0851,5.0949,5.0962,5.0991,5.1054,5.1018,5.1078,5.1063,5.1123,5.1117,5.1215,5.1229,5.1232,5.123,5.1236,5.1236,5.1258,5.1247,5.1219,5.1218,5.1216,5.1215,0,5.0802,5.0801,5.0906,5.0934,5.0943,5.1015,5.1039,5.1097,5.1101,5.1181,5.1199,5.1205,5.1273,5.127,5.1347,5.1343,5.1464,5.1448,5.1452,5.1449,5.1532,5.1525,5.1796,5.1832,5.1589,5.1591,5.1593,0,5.0918,5.0986,5.1022,5.1062,5.1084,5.1148,5.1186,5.1173,5.1214,5.1262,5.1315,5.138,5.1432,5.1544,5.1556,5.1615,5.1601,5.1692,5.161,5.1615,5.1604,5.1601,5.1609,5.1709,5.1712,5.1714,5.1716,0,5.1126,5.1122,5.1178,5.1236,5.1283,5.1327,5.1368,5.1402,5.1393,5.1442,5.1512,5.1553,5.1633,5.1699,5.1757,5.1775,5.1745,5.1742,5.1764,5.1771,5.1772,5.1774,5.1498,5.1735,5.1733,5.1732,5.1731,5.173,5.1277,5.1336,5.1371,5.1436,5.1465,5.1504,5.1561,5.1572,5.163,5.1695,5.1683,5.1763,5.1799,5.1873,5.1897,5.196,5.1927,5.1959,5.1967,5.1976,5.1986,5.1761,5.197,5.1969,5.1969,5.1968,5.1968,0,5.1483,5.1504,5.1564,5.1622,5.1674,5.1641,5.1684,5.173,5.18,5.1837,5.1889,5.1971,5.2036,5.2053,5.2115,5.2162,5.215,5.2179,5.2176,5.2181,5.2011,5.1986,5.2188,5.2188,5.2188,5.2188,5.2188,5.2188,5.1597,5.1696,5.1697,5.1811,5.183,5.1908,5.1937,5.1973,5.2002,5.2095,5.2149,5.216,5.2189,5.2254,5.2312,5.2315,5.2341,5.2376,5.2374,5.2215,5.2193,5.2172,5.2148,5.2381,5.2382,5.2539,5.2541,5.2542]},{"header":{"parameterUnit":"m.s-1","parameterCategory":1,"la1":30.2991,"la2":30.254,"lo1":-89.0895,"lo2":-89.0444,"dy":0.0017,"dx":0.0017,"nx":28,"ny":28,"refTime":"2024-03-22T09:00:00:Z","depth":0,"parameterNumber":3,"parameterNumberName":"V-component_of_WINDS"},"data":[0,0,0,0,0,0,0,0,0,0,0,0,0,0,0,0,0,0,0,0,0,0,0,0,0,0,0,0,0,0,0,0,0,0,0,0,0,0,0,0,0,0,0,0,0,0,0,0,0,0,0,0,0,0,0,0,0,0,-5.0331,-5.0331,0,-5.0373,-5.0373,-5.0373,-5.0315,-5.0313,-5.0311,-5.0309,-5.0349,-5.0352,-5.0355,0,0,0,0,0,0,0,0,0,0,0,0,0,-5.0199,-5.0202,-5.0331,-5.0331,-5.0332,-5.0372,-5.0373,-5.0374,-5.0315,-5.0313,-5.031,-5.0308,-5.0348,-5.0351,-5.0355,0,0,0,0,0,0,0,0,0,0,0,0,0,-5.025,-5.0203,-5.0331,-5.0308,-5.0306,-5.0372,-5.0373,-5.0374,-5.0316,-5.0313,-5.031,-5.0307,-5.0346,-5.0351,-5.0355,-5.0445,0,0,-5.0369,-5.0371,0,0,0,0,0,0,0,0,-5.0247,-5.0255,-5.0311,-5.031,-5.0308,-5.0335,-5.0341,-5.0398,-5.0317,-5.0312,-5.0309,-5.0305,-5.0347,-5.0351,-5.0365,-5.0447,-5.0449,-5.0369,-5.0372,-5.0374,-5.0375,0,0,0,0,0,0,0,-5.0244,-5.0253,-5.0347,-5.0312,-5.031,-5.0295,-5.0299,-5.0352,-5.0346,-5.0312,-5.0308,-5.0314,-5.0345,-5.0361,-5.0366,-5.0449,-5.0369,-5.0373,-5.0376,-5.0378,-5.0608,-5.0611,0,0,0,0,0,0,-5.0243,-5.025,-5.0346,-5.0348,-5.0269,-5.03,-5.0304,-5.033,-5.0345,-5.0345,-5.0317,-5.0311,-5.0355,-5.0361,-5.0367,-5.0474,-5.0374,-5.0378,-5.0381,-5.0604,-5.0608,-5.0612,0,0,0,0,0,0,-5.0241,-5.0252,-5.0344,-5.0298,-5.0309,-5.0305,-5.0335,-5.0332,-5.0348,-5.0349,-5.0347,-5.0334,-5.0353,-5.0361,-5.0427,-5.0474,-5.038,-5.0384,-5.06,-5.0606,-5.061,-5.0688,0,0,0,0,0,0,-5.0237,-5.0252,-5.0286,-5.03,-5.0312,-5.0404,-5.0338,-5.0335,-5.0356,-5.035,-5.0365,-5.0364,-5.0351,-5.042,-5.0431,-5.0479,-5.0388,-5.0596,-5.0603,-5.0609,-5.0681,-5.0695,-5.0707,0,0,0,0,0,-5.0233,-5.0306,-5.0288,-5.03,-5.0355,-5.0407,-5.0413,-5.0397,-5.036,-5.0395,-5.0395,-5.0364,-5.0468,-5.0427,-5.0439,-5.0489,-5.0593,-5.0601,-5.0608,-5.0675,-5.0693,-5.0707,0,0,0,0,0,0,-5.0297,-5.0307,-5.0288,-5.0367,-5.0387,-5.0397,-5.0439,-5.0416,-5.0445,-5.0438,-5.0416,-5.042,-5.0491,-5.0496,-5.0451,-5.0577,-5.0524,-5.0534,-5.0571,-5.0587,-5.06,-5.0597,-5.0391,0,0,0,0,0,-5.032,-5.0362,-5.0369,-5.0438,-5.0449,-5.0443,-5.0465,-5.0451,-5.047,-5.0478,-5.0483,-5.0502,-5.0539,-5.0563,-5.0597,-5.0682,-5.0685,-5.0722,-5.0735,-5.0746,-5.0755,-5.0801,-5.0818,-5.0637,-5.0637,-5.0637,0,0,-5.0369,-5.038,-5.0407,-5.0451,-5.0465,-5.0509,-5.045,-5.0498,-5.0531,-5.0484,-5.0548,-5.0552,-5.0572,-5.0648,-5.0682,-5.0655,-5.0806,-5.0756,-5.0764,-5.0768,-5.0811,-5.0828,-5.0843,-5.0643,-5.0642,-5.0641,0,0,-5.048,-5.0492,-5.0552,-5.0567,-5.0589,-5.0585,-5.0599,-5.0613,-5.0615,-5.0678,-5.0645,-5.0683,-5.0747,-5.0762,-5.0779,-5.0898,-5.087,-5.0909,-5.0977,-5.1023,-5.1037,-5.105,-5.1093,-5.1108,-5.0919,-5.0919,-5.0919,0,-5.0537,-5.0603,-5.0586,-5.0637,-5.0658,-5.062,-5.068,-5.0695,-5.0727,-5.0742,-5.0711,-5.0792,-5.0802,-5.0882,-5.0911,-5.0926,-5.0941,-5.0907,-5.1037,-5.1049,-5.106,-5.1101,-5.1117,-5.0923,-5.0923,-5.0922,-5.0922,0,-5.0673,-5.0719,-5.0764,-5.0797,-5.0823,-5.0879,-5.087,-5.0898,-5.0882,-5.0881,-5.0946,-5.0958,-5.0994,-5.1012,-5.0996,-5.109,-5.1073,-5.104,-5.0986,-5.1083,-5.1121,-5.1136,-5.093,-5.0929,-5.0927,-5.0926,0,0,-5.0824,-5.0848,-5.0865,-5.0881,-5.0902,-5.0937,-5.0991,-5.1028,-5.1053,-5.1076,-5.1121,-5.1177,-5.1147,-5.1166,-5.1152,-5.1192,-5.1287,-5.1154,-5.1154,-5.1179,-5.1391,-5.1416,-5.1434,-5.1268,-5.1271,-5.1274,-5.139,0,-5.0936,-5.1031,-5.1018,-5.1108,-5.1151,-5.1116,-5.1163,-5.1182,-5.1183,-5.1218,-5.1218,-5.1259,-5.1216,-5.1228,-5.1266,-5.1267,-5.1329,-5.1258,-5.131,-5.1312,-5.1306,-5.1454,-5.148,-5.1589,-5.1404,-5.1407,-5.1409,0,-5.1078,-5.1109,-5.1204,-5.1221,-5.1238,-5.1281,-5.1314,-5.1349,-5.137,-5.1367,-5.1389,-5.1369,-5.1423,-5.1368,-5.1442,-5.1395,-5.1415,-5.1419,-5.1423,-5.1427,-5.1366,-5.1463,-5.1623,-5.164,-5.1432,-5.143,-5.1428,0,-5.118,-5.1245,-5.1311,-5.1324,-5.1345,-5.1376,-5.1386,-5.1404,-5.1427,-5.1456,-5.1471,-5.1505,-5.1524,-5.1551,-5.154,-5.1501,-5.1617,-5.1561,-5.1617,-5.1617,-5.1642,-5.1641,-5.1809,-5.1655,-5.1655,-5.1655,-5.1654,0,-5.1306,-5.1366,-5.1357,-5.1397,-5.1464,-5.1448,-5.1514,-5.152,-5.1536,-5.1577,-5.1548,-5.1587,-5.157,-5.1608,-5.16,-5.1663,-5.1671,-5.1671,-5.1668,-5.1674,-5.1674,-5.1687,-5.1679,-5.1659,-5.1658,-5.1657,-5.1656,0,-5.1431,-5.1427,-5.1497,-5.1512,-5.1517,-5.1565,-5.1577,-5.1616,-5.1615,-5.1667,-5.1678,-5.1676,-5.1719,-5.1711,-5.1758,-5.1753,-5.1832,-5.182,-5.1826,-5.1823,-5.1879,-5.1874,-5.2062,-5.2086,-5.1916,-5.1918,-5.1919,0,-5.1512,-5.1558,-5.1578,-5.1604,-5.1617,-5.1659,-5.1683,-5.167,-5.1696,-5.1723,-5.1758,-5.1799,-5.1831,-5.1901,-5.1904,-5.194,-5.1928,-5.1991,-5.1933,-5.1938,-5.193,-5.1927,-5.1932,-5.2003,-5.2005,-5.2006,-5.2008,0,-5.1656,-5.1652,-5.1689,-5.1726,-5.1756,-5.1784,-5.1808,-5.1831,-5.182,-5.1851,-5.1895,-5.192,-5.1969,-5.201,-5.2044,-5.2053,-5.2029,-5.2026,-5.2041,-5.2047,-5.2049,-5.205,-5.1858,-5.2022,-5.202,-5.2019,-5.2018,-5.2018,-5.1762,-5.1801,-5.1823,-5.1864,-5.1882,-5.1906,-5.1943,-5.1948,-5.1985,-5.2025,-5.2014,-5.2065,-5.2085,-5.2128,-5.2142,-5.2181,-5.2157,-5.2178,-5.2184,-5.219,-5.2197,-5.2043,-5.2187,-5.2186,-5.2186,-5.2186,-5.2185,0,-5.1905,-5.1918,-5.1956,-5.1993,-5.2026,-5.2002,-5.2028,-5.2057,-5.2103,-5.2124,-5.2157,-5.2208,-5.2248,-5.2254,-5.2292,-5.2322,-5.2312,-5.2333,-5.233,-5.2333,-5.2215,-5.2199,-5.234,-5.234,-5.234,-5.234,-5.234,-5.234,-5.1984,-5.205,-5.2049,-5.2123,-5.2135,-5.2185,-5.2203,-5.2225,-5.2242,-5.2301,-5.2335,-5.2339,-5.2355,-5.2394,-5.2429,-5.243,-5.2445,-5.2471,-5.2467,-5.2357,-5.2341,-5.2327,-5.2311,-5.2474,-5.2474,-5.2582,-5.2583,-5.2584]}]]